Flag for U.S.A. Weather past 2 weeks in Downey, California, U.S.A.

Now
57 °F

Clear.


Feels Like: 57 °F
Forecast: 53 / 71 °F
Wind: 3 mph from Northeast

Location: Long Beach Airport

Current Time: Jan 31, 2015 at 1:27:49 AM

Latest Report: Jan 31, 2015 at 12:53 AM


Visibility: 7 mi

Pressure: 29.86 "Hg

Humidity: 93%

Dew point: 55 °F

Location of DowneyLocation

Historic Weather in Downey — Graph

°F

Downey temperature yesterday

Maximum temperature yesterday: 70 °F (at 11:53 AM)
Minimum temperature yesterday: 59 °F (at 10:53 PM)
Average temperature yesterday: 64 °F

Past Weeks' High & Low Weather Summary

 TemperatureHumidityPressure
High82 °F (Jan 24, 1:53 PM)96% (Jan 19, 11:53 PM)30.25 "Hg (Jan 19, 11:53 PM)
Low47 °F (Jan 17, 6:53 AM)13% (Jan 23, 1:53 PM)29.83 "Hg (Jan 30, 2:53 PM)
Average62 °F60%30.07 "Hg
* Reported Jan 15 11:53 PM — Jan 30 11:53 PM, Downey, Weather by CustomWeather, © 2014

Note: Actual official high and low records may vary slightly from our data, if they occured in-between our weather recording intervals... More about our weather records

Advertising

Downey weather history for previous 24 hours

 ConditionsComfort  
Time TempWeatherWind HumidityBarometerVisibility
11:53 PM
Jan 30
59 °FClear.3 mph90%29.87 "Hg8 mi
10:53 PM59 °FClear.No wind90%29.87 "Hg9 mi
9:53 PM61 °FClear.No wind81%29.87 "Hg10 mi
8:53 PM62 °FClear.No wind73%29.86 "Hg10 mi
7:53 PM62 °FPassing clouds.No wind73%29.86 "Hg10 mi
6:53 PM62 °FPassing clouds.6 mph73%29.85 "Hg10 mi
5:53 PM63 °FPassing clouds.6 mph75%29.84 "Hg10 mi
4:53 PM65 °FPartly sunny.No wind63%29.83 "Hg10 mi
3:53 PM67 °FPartly sunny.13 mph61%29.85 "Hg10 mi
2:53 PM68 °FPartly sunny.8 mph53%29.83 "Hg10 mi
1:53 PM68 °FPartly sunny.6 mph51%29.84 "Hg10 mi
12:53 PM68 °FPassing clouds.6 mph55%29.85 "Hg10 mi
11:53 AM70 °FScattered clouds.No wind51%29.89 "Hg10 mi
11:03 AM67 °FHaze.No wind59%29.91 "Hg1 mi
10:53 AM68 °FPartly sunny.No wind55%29.91 "Hg10 mi
9:53 AM65 °FPassing clouds.No wind70%29.93 "Hg10 mi
8:53 AM63 °FOvercast.No wind75%29.92 "Hg10 mi
7:53 AM61 °FLight rain. Overcast.No wind81%29.93 "Hg10 mi
6:53 AM60 °FLight rain. Overcast.No wind80%29.92 "Hg10 mi
5:53 AM61 °FMostly cloudy.No wind72%29.91 "Hg10 mi
4:53 AM63 °FOvercast.3 mph63%29.91 "Hg10 mi
3:53 AM63 °FLight rain. Overcast.5 mph65%29.93 "Hg10 mi
2:53 AM64 °FOvercast.5 mph61%29.94 "Hg10 mi
1:53 AM63 °FLight rain. Overcast.5 mph68%29.97 "Hg10 mi
Weather by CustomWeather, © 2014

See weather overviewHow to use our weather pages